[[{"header":{"parameterUnit":"m.s-1","parameterCategory":1,"la1":30.2991,"la2":30.254,"lo1":-89.0895,"lo2":-89.0444,"dy":0.0017,"dx":0.0017,"nx":28,"ny":28,"refTime":"2024-03-25T03:00:00:Z","depth":0,"parameterNumber":2,"parameterNumberName":"U-component_of_WINDS"},"data":[0,0,0,0,0,0,0,0,0,0,0,0,0,0,0,0,0,0,0,0,0,0,0,0,0,0,0,0,0,0,0,0,0,0,0,0,0,0,0,0,0,0,0,0,0,0,0,0,0,0,0,0,0,0,0,0,0,0,0.4318,0.4317,0,0.4154,0.4152,0.415,0.4027,0.4026,0.4025,0.4024,0.3847,0.3843,0.384,0,0,0,0,0,0,0,0,0,0,0,0,0,0.4518,0.4515,0.4319,0.4316,0.4314,0.4154,0.4152,0.415,0.4027,0.4026,0.4025,0.4024,0.3848,0.3844,0.3839,0,0,0,0,0,0,0,0,0,0,0,0,0,0.44,0.4514,0.4319,0.4234,0.4225,0.4155,0.4152,0.4149,0.4028,0.4026,0.4025,0.4023,0.385,0.3844,0.3839,0.3837,0,0,0.3822,0.3819,0,0,0,0,0,0,0,0,0.4407,0.4393,0.4249,0.424,0.423,0.411,0.4157,0.4044,0.4028,0.4102,0.4024,0.4022,0.3935,0.3922,0.3895,0.3828,0.3821,0.3821,0.3818,0.3815,0.3814,0,0,0,0,0,0,0,0.4415,0.4399,0.4253,0.4247,0.4235,0.4202,0.4183,0.4135,0.4029,0.4096,0.4087,0.4069,0.3929,0.3901,0.389,0.3818,0.3821,0.3816,0.3813,0.3811,0.3739,0.3741,0,0,0,0,0,0,0.4438,0.4407,0.4258,0.4248,0.4316,0.42,0.4179,0.415,0.403,0.401,0.4071,0.4064,0.3911,0.3896,0.3883,0.3872,0.3815,0.381,0.3807,0.3738,0.374,0.3741,0,0,0,0,0,0,0.4443,0.4426,0.4265,0.4325,0.4302,0.4198,0.4166,0.4147,0.4118,0.4011,0.3991,0.4061,0.3909,0.3891,0.3849,0.3864,0.3808,0.3803,0.3736,0.3739,0.3741,0.3851,0,0,0,0,0,0,0.4449,0.4428,0.4429,0.4326,0.4299,0.4237,0.4167,0.4145,0.411,0.41,0.3997,0.3978,0.3906,0.3858,0.3844,0.3856,0.3798,0.3734,0.3737,0.374,0.3846,0.3857,0.3867,0,0,0,0,0,0.4456,0.4465,0.4429,0.4412,0.4298,0.4239,0.4223,0.4143,0.4112,0.411,0.4041,0.3981,0.3865,0.3855,0.3838,0.3848,0.3733,0.3736,0.374,0.3841,0.3855,0.3866,0,0,0,0,0,0,0.4569,0.445,0.4409,0.4385,0.4323,0.4218,0.4213,0.416,0.4103,0.4096,0.3996,0.3974,0.3943,0.389,0.3882,0.3839,0.3791,0.3791,0.3874,0.3886,0.3897,0.391,0.3794,0,0,0,0,0,0.4591,0.4556,0.4452,0.444,0.4412,0.4319,0.4289,0.4233,0.4164,0.4136,0.4064,0.3997,0.3944,0.3912,0.3858,0.3837,0.3812,0.3835,0.3846,0.3855,0.3856,0.384,0.3849,0.3752,0.3752,0.3752,0,0,0.4636,0.4567,0.455,0.4461,0.4407,0.437,0.4297,0.4261,0.4231,0.4129,0.4087,0.4032,0.3949,0.3918,0.39,0.3874,0.3877,0.3859,0.3867,0.3863,0.3844,0.3853,0.3861,0.3754,0.3754,0.3753,0,0,0.47,0.4644,0.4628,0.4576,0.4495,0.4433,0.4429,0.4332,0.4292,0.4248,0.4171,0.4133,0.4046,0.399,0.3951,0.3993,0.3935,0.3978,0.4032,0.4017,0.4025,0.4031,0.4045,0.4052,0.3979,0.3979,0.3979,0,0.4765,0.4709,0.4626,0.4595,0.4558,0.4467,0.4449,0.44,0.4305,0.428,0.4252,0.4141,0.4079,0.4033,0.4044,0.4015,0.4006,0.3989,0.4031,0.4036,0.4041,0.4053,0.4059,0.3985,0.3984,0.3984,0.3983,0,0.4793,0.4755,0.4752,0.4666,0.4628,0.4603,0.4514,0.4485,0.4432,0.4372,0.4327,0.4249,0.4178,0.4163,0.4109,0.4109,0.4095,0.405,0.4001,0.4057,0.4067,0.4071,0.3993,0.3991,0.3989,0.3988,0,0,0.4923,0.4793,0.4793,0.4752,0.4657,0.4624,0.4594,0.4528,0.4504,0.4441,0.4412,0.434,0.4299,0.4254,0.4193,0.418,0.4217,0.4136,0.4132,0.4154,0.4211,0.4245,0.4253,0.4179,0.4179,0.418,0.4217,0,0.4972,0.4918,0.4842,0.4811,0.4774,0.4687,0.466,0.4597,0.454,0.4497,0.4432,0.4383,0.4332,0.4304,0.4287,0.4217,0.4227,0.4213,0.4148,0.4147,0.4173,0.4258,0.4294,0.4334,0.4221,0.4222,0.4222,0,0.5021,0.4967,0.4934,0.4841,0.4823,0.4801,0.4733,0.4695,0.462,0.4579,0.453,0.4464,0.4425,0.4381,0.4324,0.4316,0.4284,0.4245,0.4244,0.4236,0.4189,0.4251,0.4345,0.4351,0.4227,0.4227,0.4227,0,0.512,0.5037,0.5007,0.4975,0.4866,0.4853,0.4806,0.473,0.4695,0.4634,0.461,0.4544,0.4509,0.4458,0.4375,0.4351,0.4327,0.4276,0.429,0.4292,0.4289,0.429,0.4379,0.4269,0.4269,0.4269,0.4269,0,0.5182,0.5165,0.505,0.5031,0.5009,0.4921,0.49,0.4844,0.4777,0.4744,0.4663,0.4632,0.4525,0.4481,0.4416,0.4378,0.4362,0.4326,0.4309,0.4334,0.4338,0.4312,0.4307,0.427,0.427,0.427,0.4269,0,0.5289,0.5211,0.5172,0.5073,0.5047,0.5035,0.4948,0.4925,0.4863,0.4822,0.4807,0.4708,0.4652,0.4565,0.4482,0.4438,0.4411,0.4382,0.4438,0.4427,0.4446,0.4446,0.4521,0.4526,0.4414,0.4415,0.4416,0,0.5334,0.5319,0.5219,0.5193,0.515,0.5108,0.5073,0.4984,0.495,0.4863,0.485,0.4789,0.4735,0.4649,0.4567,0.4503,0.4472,0.4503,0.4462,0.4487,0.4472,0.4474,0.4472,0.4513,0.4515,0.4516,0.4517,0,0.5422,0.5385,0.5338,0.5279,0.5239,0.5187,0.513,0.5112,0.501,0.4974,0.4919,0.4877,0.4794,0.4733,0.4657,0.4604,0.4543,0.4531,0.453,0.4556,0.4588,0.4571,0.4464,0.4529,0.4528,0.4527,0.4527,0.4526,0.5499,0.5482,0.541,0.536,0.5309,0.5258,0.5232,0.5167,0.512,0.5048,0.4997,0.4944,0.4867,0.476,0.4711,0.4665,0.4638,0.4638,0.4638,0.4639,0.4648,0.4596,0.4651,0.465,0.465,0.4649,0.4649,0,0.5583,0.5532,0.5488,0.5413,0.5374,0.5323,0.5257,0.5226,0.5182,0.5117,0.5067,0.5001,0.4942,0.4856,0.4789,0.4769,0.4739,0.4754,0.4754,0.4743,0.4676,0.4683,0.478,0.478,0.4779,0.4779,0.4779,0.4779,0.5622,0.5591,0.5545,0.5486,0.5434,0.5385,0.5351,0.5303,0.5251,0.5183,0.5135,0.508,0.5006,0.4933,0.4875,0.485,0.4829,0.4854,0.4821,0.476,0.4748,0.4736,0.4743,0.485,0.485,0.4891,0.4892,0.4892]},{"header":{"parameterUnit":"m.s-1","parameterCategory":1,"la1":30.2991,"la2":30.254,"lo1":-89.0895,"lo2":-89.0444,"dy":0.0017,"dx":0.0017,"nx":28,"ny":28,"refTime":"2024-03-25T03:00:00:Z","depth":0,"parameterNumber":3,"parameterNumberName":"V-component_of_WINDS"},"data":[0,0,0,0,0,0,0,0,0,0,0,0,0,0,0,0,0,0,0,0,0,0,0,0,0,0,0,0,0,0,0,0,0,0,0,0,0,0,0,0,0,0,0,0,0,0,0,0,0,0,0,0,0,0,0,0,0,0,5.1252,5.1254,0,5.1463,5.1466,5.1468,5.154,5.1539,5.1538,5.1537,5.1754,5.1761,5.1767,0,0,0,0,0,0,0,0,0,0,0,0,0,5.091,5.0916,5.1252,5.1255,5.1257,5.1463,5.1466,5.1468,5.154,5.1539,5.1538,5.1537,5.1752,5.176,5.1768,0,0,0,0,0,0,0,0,0,0,0,0,0,5.1084,5.0918,5.1252,5.1318,5.1326,5.1462,5.1466,5.1469,5.154,5.1539,5.1537,5.1536,5.175,5.1759,5.1769,5.1856,0,0,5.1799,5.1803,0,0,0,0,0,0,0,0,5.1074,5.1096,5.1305,5.1313,5.1323,5.1474,5.1425,5.1599,5.154,5.1459,5.1537,5.1536,5.1662,5.1679,5.1722,5.1866,5.1875,5.18,5.1806,5.181,5.1813,0,0,0,0,0,0,0,5.1062,5.1088,5.1336,5.1308,5.1319,5.1336,5.136,5.1458,5.1565,5.1466,5.1471,5.1495,5.1667,5.1712,5.1727,5.1878,5.18,5.1808,5.1815,5.1818,5.2103,5.2105,0,0,0,0,0,0,5.1039,5.1077,5.1329,5.1342,5.1192,5.1344,5.137,5.1426,5.1564,5.1584,5.1496,5.1498,5.1696,5.1716,5.1735,5.1846,5.181,5.1819,5.1825,5.2102,5.2104,5.2105,0,0,0,0,0,0,5.1031,5.106,5.132,5.1211,5.1246,5.1351,5.1414,5.1431,5.1477,5.1587,5.1607,5.1523,5.1695,5.1721,5.1825,5.1854,5.1824,5.1833,5.21,5.2102,5.2104,5.2067,0,0,0,0,0,0,5.1021,5.1057,5.1091,5.1211,5.1251,5.1407,5.1416,5.1436,5.1493,5.1498,5.1617,5.1636,5.1696,5.181,5.1835,5.1867,5.1841,5.2098,5.2101,5.2104,5.2066,5.2068,5.2069,0,0,0,0,0,5.1008,5.1073,5.1093,5.1123,5.1296,5.1408,5.1431,5.1499,5.1495,5.1531,5.1601,5.1632,5.1846,5.182,5.1848,5.1884,5.2096,5.21,5.2103,5.2065,5.2068,5.2069,0,0,0,0,0,0,5.0955,5.109,5.1114,5.1219,5.1301,5.142,5.1467,5.1499,5.1585,5.1585,5.1666,5.1692,5.1789,5.1847,5.1815,5.1975,5.1973,5.1982,5.1934,5.1937,5.1939,5.1923,5.1849,0,0,0,0,0,5.0955,5.1034,5.1148,5.123,5.127,5.1361,5.1412,5.1457,5.1546,5.1582,5.166,5.1745,5.1832,5.1887,5.1973,5.2074,5.2101,5.2113,5.2114,5.2115,5.2123,5.218,5.2187,5.2118,5.2117,5.2117,0,0,5.0957,5.104,5.1086,5.1221,5.1291,5.1371,5.139,5.1475,5.1535,5.1595,5.1698,5.1757,5.1858,5.196,5.2009,5.2011,5.2148,5.212,5.2119,5.2127,5.2185,5.2191,5.2197,5.212,5.212,5.2119,0,0,5.1001,5.1072,5.1148,5.1217,5.1321,5.138,5.1398,5.1512,5.1554,5.1658,5.1704,5.1777,5.1924,5.1994,5.2048,5.2116,5.2148,5.2142,5.2151,5.2206,5.2212,5.2217,5.2242,5.225,5.2149,5.2149,5.2149,0,5.0991,5.1114,5.1183,5.1266,5.1324,5.1379,5.1457,5.152,5.1646,5.1685,5.1685,5.1871,5.1942,5.2061,5.2078,5.212,5.2143,5.213,5.2205,5.2211,5.2217,5.2242,5.2251,5.2147,5.2148,5.2148,5.2148,0,5.1096,5.118,5.1229,5.1349,5.1413,5.1492,5.1572,5.1628,5.1666,5.1726,5.183,5.1918,5.2022,5.2053,5.2092,5.2178,5.2176,5.2189,5.2189,5.2221,5.2246,5.2256,5.2145,5.2146,5.2146,5.2147,0,0,5.1116,5.1271,5.1288,5.1343,5.146,5.1527,5.1608,5.1709,5.1755,5.184,5.191,5.2032,5.2045,5.2107,5.2154,5.2202,5.225,5.221,5.2213,5.2215,5.2351,5.2341,5.2351,5.2271,5.2273,5.2275,5.2342,0,5.1176,5.1324,5.1387,5.1506,5.1584,5.1637,5.1707,5.1787,5.1844,5.1919,5.1982,5.2067,5.2077,5.2115,5.2164,5.2234,5.2279,5.2229,5.2338,5.2341,5.2313,5.2363,5.2354,5.2414,5.2352,5.2354,5.2355,0,5.1268,5.1352,5.1478,5.1585,5.162,5.1682,5.178,5.185,5.1941,5.1979,5.2047,5.2091,5.2177,5.2169,5.229,5.2255,5.2303,5.2343,5.2347,5.2362,5.2351,5.238,5.2435,5.2444,5.2371,5.237,5.2369,0,5.127,5.1415,5.1509,5.1554,5.1681,5.1723,5.1778,5.1868,5.1924,5.2008,5.2046,5.2139,5.2191,5.2262,5.233,5.2318,5.2445,5.2442,5.2479,5.2477,5.2505,5.2503,5.2569,5.2533,5.2533,5.2533,5.2533,0,5.1332,5.1407,5.1511,5.1569,5.1655,5.1726,5.1809,5.1867,5.1946,5.2016,5.2067,5.2132,5.2217,5.2292,5.2346,5.2438,5.246,5.2494,5.2508,5.249,5.2486,5.2524,5.2522,5.2535,5.2535,5.2534,5.2534,0,5.1351,5.1423,5.1529,5.164,5.1669,5.1727,5.1822,5.188,5.1938,5.2026,5.2051,5.2143,5.2234,5.2308,5.2428,5.2464,5.256,5.2575,5.253,5.2537,5.257,5.2566,5.2665,5.2681,5.2632,5.2632,5.2632,0,5.1386,5.1445,5.1562,5.1612,5.1666,5.1746,5.1803,5.1875,5.1933,5.2039,5.2084,5.2179,5.2259,5.2402,5.248,5.2571,5.259,5.2618,5.2604,5.2585,5.2592,5.2588,5.2594,5.262,5.262,5.262,5.262,0,5.1442,5.1475,5.1555,5.1647,5.1714,5.179,5.1868,5.1906,5.1992,5.2054,5.2147,5.2209,5.233,5.2424,5.2523,5.258,5.2615,5.2623,5.2637,5.2621,5.2592,5.2609,5.2535,5.2621,5.2621,5.2621,5.2621,5.2621,5.1472,5.1526,5.1616,5.1703,5.1769,5.184,5.19,5.1964,5.2043,5.2147,5.2184,5.228,5.2369,5.2506,5.2563,5.2639,5.2642,5.2662,5.2667,5.2671,5.2669,5.2578,5.2657,5.2657,5.2657,5.2657,5.2657,0,5.1531,5.1591,5.167,5.1777,5.1845,5.1869,5.1956,5.2012,5.2096,5.2175,5.2251,5.2358,5.2449,5.2532,5.2627,5.2672,5.269,5.2694,5.2692,5.2705,5.266,5.264,5.2678,5.2678,5.2678,5.2678,5.2678,5.2678,5.157,5.1663,5.1706,5.1832,5.1892,5.1985,5.2033,5.2098,5.2162,5.2278,5.2353,5.2406,5.2488,5.2588,5.2672,5.2694,5.2727,5.2727,5.2754,5.2711,5.2708,5.2705,5.2686,5.2734,5.2734,5.2793,5.2793,5.2793]}]]